Aktion, Greece

1:10 PM EET on January 22, 2018 (GMT +0200)
Aktion Air Base

Weather History for LGPZ - September, 2012

Change the Weather History Date:

Thursday, September 27, 2012

  Actual Average Record
Temperature  
Mean Temperature 74 °F -  
Max Temperature 82 °F 72 °F 84 °F (2011)
Min Temperature 67 °F 59 °F 57 °F (2016)
Cooling Degree Days 10    
Growing Degree Days 24 (Base 50)    
Moisture  
Dew Point 65 °F    
Average Humidity 72    
Maximum Humidity 95    
Minimum Humidity 42    
Precipitation  
Precipitation 0.00 in - - ()
Sea Level Pressure  
Sea Level Pressure 30.04 in    
Wind  
Wind Speed 3 mph ()    
Max Wind Speed 10 mph    
Max Gust Speed -    
Visibility 5.6 miles    
Events      
Averages and records for this station are not official NWS values.
T = Trace of Precipitation, MM = Missing Value Source: Averaged Metar Reports

Daily Weather History Graph

Daily Weather History Graph

Search for Another Location

Airport or City:

Trip Planner

Search our weather history database for the weather conditions in past years. The results will help you decide how hot, cold, wet, or windy it might be!

Date:

Astronomy

Sep. 27, 2012 Rise Set
Actual Time 7:29 AM EEST 7:25 PM EEST
Civil Twilight 7:02 AM EEST 7:52 PM EEST
Nautical Twilight 6:31 AM EEST 8:23 PM EEST
Astronomical Twilight 6:00 AM EEST 8:54 PM EEST
Moon 5:46 PM EEST (9/27) 4:40 AM EEST (9/27)
Length of Visible Light 12h 49m
Length of Day
11h 56m
Waxing Gibbous, 92% of the Moon is Illuminated
Sep 27
Waxing Gibbous
Sep 30
Full
Oct 8
Last Quarter
Oct 15
New
Oct 22
First Quarter

Hourly Weather History & Observations

Time (EEST) Temp. Heat Index Dew Point Humidity Pressure Visibility Wind Dir Wind Speed Gust Speed Precip Events Conditions
12:50 AM 71.6 °F - 68.0 °F 88% 30.04 in - Calm Calm - N/A   Clear
1:50 AM 69.8 °F - 68.0 °F 94% 30.04 in - Calm Calm - N/A   Clear
2:50 AM 68.0 °F - 66.2 °F 94% 30.04 in - Calm Calm - N/A   Clear
3:00 AM 69 °F - 67 °F 90% 30.05 in 6 mi Calm Calm - -  
4:50 AM 68.0 °F - 66.2 °F 94% 30.04 in - Calm Calm - N/A   Clear
5:50 AM 69.8 °F - 68.0 °F 94% 30.04 in 4.3 mi Calm Calm - N/A   Scattered Clouds
6:20 AM 66.2 °F - 62.6 °F 88% 30.01 in 4.3 mi Calm Calm - N/A   Scattered Clouds
6:50 AM 68.0 °F - 66.2 °F 94% 30.04 in 5.0 mi Calm Calm - N/A   Scattered Clouds
7:20 AM 66.2 °F - 64.4 °F 94% 30.04 in 5.6 mi ENE 4.6 mph - N/A   Scattered Clouds
7:50 AM 68.0 °F - 66.2 °F 94% 30.04 in 6.2 mi Variable 3.5 mph - N/A   Partly Cloudy
8:20 AM 69.8 °F - 68.0 °F 94% 30.04 in 6.2 mi Calm Calm - N/A   Partly Cloudy
8:50 AM 71.6 °F - 69.8 °F 94% 30.04 in - ENE 4.6 mph - N/A   Clear
9:00 AM 71 °F - 70 °F 95% 30.05 in 6 mi ENE 4.6 mph - -  
9:20 AM 71.6 °F - 68.0 °F 88% 30.04 in - East 5.8 mph - N/A   Clear
9:50 AM 73.4 °F - 66.2 °F 78% 30.06 in - ENE 5.8 mph - N/A   Clear
10:20 AM 75.2 °F - 66.2 °F 73% 30.06 in - East 5.8 mph - N/A   Clear
10:50 AM 77.0 °F - 64.4 °F 65% 30.06 in - ENE 6.9 mph - N/A   Clear
11:20 AM 80.6 °F 81.1 °F 59.0 °F 48% 30.06 in - ENE 4.6 mph - N/A   Clear
11:50 AM 80.6 °F 80.8 °F 57.2 °F 45% 30.06 in - Calm Calm - N/A   Clear
12:20 PM 82.4 °F 82.5 °F 59.0 °F 45% 30.06 in - Calm Calm - N/A   Clear
12:50 PM 82.4 °F 82.5 °F 59.0 °F 45% 30.06 in - Calm Calm - N/A   Clear
1:20 PM 84.2 °F 83.8 °F 59.0 °F 42% 30.04 in - WNW 6.9 mph - N/A   Clear
1:50 PM 82.4 °F 83.4 °F 62.6 °F 51% 30.04 in - West 6.9 mph - N/A   Clear
2:20 PM 82.4 °F 84.6 °F 66.2 °F 58% 30.04 in - West 8.1 mph - N/A   Clear
2:50 PM 82.4 °F 84.6 °F 66.2 °F 58% 30.04 in - West 9.2 mph - N/A   Clear
3:00 PM 82 °F - 67 °F 51% 30.05 in 6 mi West 9.2 mph - -  
3:20 PM 82.4 °F 84.6 °F 66.2 °F 58% 30.04 in - West 9.2 mph - N/A   Clear
3:50 PM 80.6 °F 83.2 °F 68.0 °F 65% 30.04 in - West 10.4 mph - N/A   Clear
4:20 PM 80.6 °F 82.7 °F 66.2 °F 61% 30.01 in - West 10.4 mph - N/A   Clear
5:50 PM 80.6 °F 81.8 °F 62.6 °F 54% 30.01 in - West 9.2 mph - N/A   Clear
7:20 PM 78.8 °F - 64.4 °F 61% 30.01 in - WSW 8.1 mph - N/A   Clear
7:50 PM 77.0 °F - 66.2 °F 69% 30.04 in - WSW 9.2 mph - N/A   Clear
8:20 PM 77.0 °F - 66.2 °F 69% 30.04 in - WSW 9.2 mph - N/A   Clear
8:50 PM 77.0 °F - 66.2 °F 69% 30.04 in - WSW 8.1 mph - N/A   Clear
9:00 PM 77 °F - 66 °F 60% 30.06 in 6 mi WSW 8.1 mph - -  
9:50 PM 75.2 °F - 66.2 °F 73% 30.06 in - West 6.9 mph - N/A   Clear
10:50 PM 75.2 °F - 66.2 °F 73% 30.06 in - West 6.9 mph - N/A   Clear
11:50 PM 68.0 °F - 64.4 °F 88% 30.06 in - Calm Calm - N/A   Clear